Regional Weather Roundup
Issued by NWS

Home | Current Version | Previous Version | Graphics & Text | Print | Product List | Glossary On
Versions: 1 2 3 4 5 6 7 8 9 10 11 12 13 14 15 16 17 18 19 20 21 22 23 24 25 26 27 28 29 30 31 32 33 34 35 36 37 38 39 40 41 42 43 44 45 46 47 48 49 50
035
ASUS44 KLIX 060505
RWRLA
LOUISIANA WEATHER ROUNDUP
NATIONAL WEATHER SERVICE NEW ORLEANS LA
1100 PM CST THU MAR 05 2015

NOTE: "FAIR" INDICATES FEW OR NO CLOUDS BELOW 12,000 FEET WITH NO
      SIGNIFICANT WEATHER AND/OR OBSTRUCTIONS TO VISIBILITY.
      SKY/WX - SKY CONDITION AND SIGNIFICANT WEATHER.
      TMP - AIR TEMPERATURE.    DP   - DEWPOINT TEMPERATURE.
      RH  - RELATIVE HUMIDITY.  PRES - PRESSURE.
      HX  - HEAT INDEX.         WCI  - WIND CHILL INDEX.

*  THESE STATIONS ARE NOT NWS OR FAA STATIONS AND ARE NOT UNDER
   NWS QUALITY CONTROL.

LAZ040-048-061>063-065-066-069-060600-
SOUTHEAST LOUISIANA

CITY           SKY/WX    TMP DP  RH WIND       PRES   REMARKS
N.O. AUDUBON   NOT AVBL
N.O. INTL ARPT PTCLDY    35  23  61 N23       30.46R WCI  23
N.O. LAKEFRONT PTCLDY    38  25  59 N29G36    30.47R WCI  26
SLIDELL        PTCLDY    33  21  61 N15G24    30.45S WCI  23
BATON ROUGE    CLEAR     31  19  61 N8        30.52R WCI  23
BOOTHVILLE     CLOUDY    42  31  64 N15G24    30.39F
BELLE CHASSE   MOCLDY    37  22  54 N12G22    30.44R WCI  29
BOGALUSA*        N/A     33  26  76 N8        30.50S WCI  25
GALLIANO*      MOCLDY    40  28  63 N15G24    30.43F WCI  31
NEW ROADS*     FAIR      31  14  48 N12G21    30.54R WCI  22
GONZALES*      FAIR      32  23  70 N8G16     30.49S WCI  25
HAMMOND*       PTCLDY    32  21  64 N12G17    30.51S WCI  23
HOUMA*         PTCLDY    34  25  69 N14       30.46R WCI  25
PORT FOURCHON* MOCLDY    41  27  56 N24G32    30.44F

$$

LAZ041-044-053-054-060600-
SOUTHWEST LOUISIANA

CITY           SKY/WX    TMP DP  RH WIND       PRES   REMARKS
LAKE CHARLES   CLEAR     35  22  58 N14       30.54R WCI  26
LAFAYETTE      CLEAR     33  21  61 N14G23    30.52R WCI  23
PATTERSON      CLEAR     34  19  55 N16G25    30.48S WCI  23
SALT POINT       N/A     35  20  54 N10G20    30.47R WCI  27
NEW IBERIA     NOT AVBL
CHENAULT AIRPK CLEAR     34  22  61 N7        30.55S WCI  28

$$

LAZ027-028-060600-
CENTRAL LOUISIANA

CITY           SKY/WX    TMP DP  RH WIND       PRES   REMARKS
FORT POLK      CLEAR     30  20  66 N6        30.54S WCI  24
ALEXANDRIA INT CLEAR     30  19  63 NE5       30.56S WCI  25
ALEXANDRIA     CLEAR     31  19  61 VRB3      30.56S

$$

LAZ001-002-060600-
NORTHWEST LOUISIANA

CITY           SKY/WX    TMP DP  RH WIND       PRES   REMARKS
SHREVEPORT     CLEAR     30  22  72 CALM      30.58S
BARKSDALE AFB  CLEAR     30  21  68 CALM      30.58F
DTN SHREVEPORT CLEAR     30  18  60 CALM      30.59S

$$

LAZ014-016-060600-
NORTHEAST LOUISIANA

CITY           SKY/WX    TMP DP  RH WIND       PRES   REMARKS
MONROE         CLEAR     28  18  66 N6        30.60S WCI  22
TALLULAH       CLEAR     29  17  61 N10       30.58S WCI  20

$$




USA.gov is the U.S. government's official web portal to all federal, state and local government web resources and services.